Flag for U.S.A. Weather past 2 weeks in Compton, California, U.S.A.

Now
51 °F

Clear.


Feels Like: 51 °F
Forecast: 47 / 70 °F
Wind: No wind

Location: Hawthorne Municipal Airport

Current Time: Mar 4, 2015 at 5:01:14 AM

Latest Report: Mar 4, 2015 at 3:53 AM


Visibility: 10 mi

Pressure: 29.98 "Hg

Humidity: 77%

Dew point: 44 °F

Location of ComptonLocation

Historic Weather in Compton — Graph

°F

Compton temperature yesterday

Maximum temperature yesterday: 66 °F (at 12:53 PM)
Minimum temperature yesterday: 50 °F (at 3:53 AM)
Average temperature yesterday: 58 °F

Past Weeks' High & Low Weather Summary

 TemperatureHumidityPressure
High75 °F (Feb 24, 1:53 PM)93% (Feb 23, 2:53 AM)30.24 "Hg (Feb 23, 2:53 AM)
Low48 °F (Feb 24, 4:53 AM)12% (Feb 24, 1:53 PM)29.75 "Hg (Feb 27, 11:53 PM)
Average60 °F69%29.98 "Hg
* Reported Feb 17 3:53 AM — Mar 4 3:53 AM, Compton, Weather by CustomWeather, © 2015

Note: Actual official high and low records may vary slightly from our data, if they occured in-between our weather recording intervals... More about our weather records

Advertising

Compton weather history for previous 24 hours

 ConditionsComfort  
Time TempWeatherWind HumidityBarometerVisibility
3:53 AM
Wed, Mar 4
51 °FClear.No wind77%29.98 "Hg10 mi
2:53 AM52 °FClear.No wind77%29.98 "Hg10 mi
1:53 AM53 °FClear.No wind74%29.98 "Hg10 mi
12:53 AM54 °FClear.No wind77%29.97 "Hg10 mi
11:53 PM
Tue, Mar 3
55 °FClear.No wind64%29.96 "Hg10 mi
10:53 PM57 °FClear.No wind69%29.95 "Hg10 mi
9:53 PM59 °FClear.No wind67%29.95 "Hg10 mi
8:53 PM59 °FClear.3 mph67%29.93 "Hg10 mi
7:53 PM60 °FClear.6 mph65%29.92 "Hg10 mi
6:53 PM60 °FClear.8 mph65%29.90 "Hg10 mi
5:53 PM60 °FClear.10 mph65%29.89 "Hg10 mi
4:53 PM62 °FSunny.14 mph54%29.89 "Hg10 mi
3:53 PM63 °FSunny.14 mph50%29.89 "Hg10 mi
2:53 PM64 °FSunny.15 mph49%29.90 "Hg10 mi
1:53 PM65 °FSunny.15 mph44%29.91 "Hg10 mi
12:53 PM66 °FSunny.10 mph37%29.92 "Hg10 mi
11:53 AM64 °FSunny.No wind35%29.95 "Hg10 mi
10:53 AM62 °FSunny.No wind41%29.96 "Hg10 mi
9:53 AM60 °FSunny.No wind47%29.97 "Hg10 mi
8:53 AM58 °FSunny.3 mph56%29.98 "Hg10 mi
7:53 AM54 °FSunny.6 mph67%29.97 "Hg10 mi
6:53 AM50 °FSunny.No wind80%29.95 "Hg10 mi
5:53 AM50 °FClear.No wind80%29.94 "Hg10 mi
Weather by CustomWeather, © 2015

See weather overviewHow to use our weather pages